EW3732 Weather Reports


Display with metric or nautical units.
time (UTC)temp
F
wind
direction
speed
MPH
gust
MPH
rain 1hr
in
rain 24hr
in
rain mn
in
humidity
%
barometer
mb
20181115064630 45 16 0.0 0.0 0.00 0.07 0.07 89 1029.8
20181115063131 44 9 0.0 3.0 0.00 0.07 0.07 90 1029.7
20181115061703 44 348 0.0 0.0 0.00 0.07 0.07 89 1029.6
20181115060127 45 348 0.0 0.0 0.00 0.07 0.07 87 1029.6
20181115054640 46 348 0.0 1.0 0.00 0.07 0.07 86 1029.4
20181115053130 46 332 0.0 0.0 0.00 0.07 0.07 84 1029.4
20181115051622 46 275 0.0 5.0 0.00 0.07 0.07 83 1029.3
20181115050156 47 299 0.0 1.0 0.00 0.07 0.07 83 1029.0
20181115044641 47 243 0.0 0.0 0.00 0.07 0.07 82 1028.7
20181115043153 47 218 0.0 0.0 0.00 0.07 0.07 83 1028.6
20181115041648 47 217 0.0 1.0 0.00 0.07 0.07 83 1028.7
20181115040136 47 240 0.0 3.0 0.00 0.07 0.07 83 1028.6
20181115034639 47 239 0.0 2.0 0.00 0.07 0.07 81 1028.4
20181115033131 47 237 0.0 3.0 0.00 0.07 0.07 81 1028.3
20181115031630 47 198 0.0 3.0 0.00 0.07 0.07 82 1028.4
20181115030134 47 237 0.0 3.0 0.00 0.07 0.07 83 1028.2
20181115024557 47 209 0.0 0.0 0.00 0.07 0.07 83 1028.1
20181115023137 47 249 0.0 1.0 0.00 0.07 0.07 83 1028.0
20181115021620 47 229 0.0 0.0 0.00 0.07 0.07 83 1027.7
20181115020132 47 254 0.0 0.0 0.00 0.07 0.07 83 1027.7
20181115014622 47 284 0.0 0.0 0.00 0.07 0.07 84 1027.4
20181115013105 47 248 0.0 0.0 0.00 0.07 0.07 85 1027.3
20181115011604 47 355 0.0 4.0 0.00 0.07 0.07 85 1027.3
20181115010102 47 263 0.0 1.0 0.00 0.07 0.07 86 1027.2
20181115004604 47 263 0.0 10.0 0.00 0.07 0.07 85 1027.1
20181115003117 47 266 0.0 4.0 0.00 0.07 0.07 86 1027.2
20181115001621 47 241 0.0 6.0 0.00 0.07 0.07 85 1027.1
20181115000107 47 268 0.0 6.0 0.00 0.07 0.07 86 1027.0
20181114234630 48 252 1.0 11.0 0.00 0.07 0.07 86 1027.1
20181114233147 48 259 0.0 14.0 0.00 0.07 0.07 86 1026.9
20181114231620 48 321 2.0 11.0 0.00 0.07 0.07 88 1026.9
20181114230054 47 279 0.0 7.0 0.00 0.07 0.07 91 1026.8
20181114224630 47 257 0.0 1.0 0.01 0.07 0.07 92 1026.7
20181114223051 47 360 1.0 9.0 0.01 0.07 0.07 92 1026.7
20181114221544 46 300 0.0 9.0 0.01 0.07 0.07 97 1026.7
20181114220030 45 314 0.0 7.0 0.01 0.07 0.07 98 1026.8
20181114214605 41 273 0.0 8.0 0.00 0.06 0.06 97 1026.9
20181114213102 35 140 0.0 0.0 0.00 0.06 0.06 96 1027.1
20181114211533 35 263 0.0 1.0 0.00 0.06 0.06 96 1027.2
20181114210040 34 73 0.0 0.0 0.00 0.06 0.06 96 1027.2
20181114204523 34 77 0.0 0.0 0.00 0.06 0.06 96 1027.4
20181114203014 33 76 0.0 0.0 0.01 0.06 0.06 96 1027.5
20181114201512 33 76 0.0 0.0 0.02 0.06 0.06 96 1027.9
20181114200047 33 76 0.0 0.0 0.03 0.06 0.06 96 1028.0
20181114194524 32 76 0.0 0.0 0.03 0.05 0.05 95 1028.4
20181114193006 32 76 0.0 0.0 0.04 0.05 0.05 95 1028.4
20181114191505 32 76 0.0 0.0 0.03 0.04 0.04 95 1028.5
20181114190029 32 76 0.0 0.0 0.02 0.03 0.03 95 1028.3
20181114184511 32 84 0.0 0.0 0.02 0.02 0.02 95 1028.0
20181114183010 32 84 0.0 0.0 0.01 0.01 0.01 94 1028.1
20181114181655 32 87 0.0 0.0 0.01 0.01 0.01 94 1028.2
20181114180148 32 86 0.0 0.0 0.01 0.01 0.01 92 1028.1
20181114174653 32 87 0.0 0.0 0.00 0.00 0.00 91 1028.2
20181114173202 32 86 0.0 0.0 0.00 0.00 0.00 91 1028.0
20181114171714 31 107 0.0 0.0 0.00 0.00 0.00 91 1027.9
20181114170144 31 107 0.0 0.0 0.00 0.00 0.00 92 1028.1
20181114164638 30 107 0.0 0.0 0.00 0.00 0.00 93 1028.3
20181114163127 30 108 0.0 0.0 0.00 0.00 0.00 93 1028.3
20181114161642 30 108 0.0 0.0 0.00 0.00 0.00 94 1028.6
20181114160114 30 108 0.0 0.0 0.00 0.00 0.00 94 1028.8
20181114154558 30 108 0.0 0.0 0.00 0.00 0.00 94 1028.8
20181114153102 30 108 0.0 0.0 0.00 0.00 0.00 94 1028.8
20181114151628 30 108 0.0 0.0 0.00 0.00 0.00 94 1028.9
20181114150120 29 108 0.0 0.0 0.00 0.00 0.00 94 1029.0
20181114144609 29 108 0.0 0.0 0.00 0.00 0.00 94 1028.9
20181114143121 29 108 0.0 0.0 0.00 0.00 0.00 94 1029.1
20181114141616 29 108 0.0 0.0 0.00 0.00 0.00 94 1029.1
20181114140150 29 108 0.0 0.0 0.00 0.00 0.00 94 1029.2
20181114134633 29 108 0.0 0.0 0.00 0.00 0.00 94 1029.2
20181114133144 29 108 0.0 0.0 0.00 0.00 0.00 94 1029.4
20181114131620 29 107 0.0 0.0 0.00 0.00 0.00 95 1029.4
20181114130123 29 107 0.0 0.0 0.00 0.00 0.00 95 1029.7
20181114124618 29 136 0.0 0.0 0.00 0.00 0.00 95 1029.7
20181114123121 29 136 0.0 0.0 0.00 0.00 0.00 95 1029.8
20181114121623 29 136 0.0 0.0 0.00 0.00 0.00 95 1030.0
20181114120100 29 136 0.0 0.0 0.00 0.00 0.00 95 1029.9
20181114114557 29 136 0.0 1.0 0.00 0.00 0.00 96 1029.7
20181114113120 29 136 0.0 0.0 0.00 0.00 0.00 96 1029.9
20181114111601 28 136 0.0 0.0 0.00 0.00 0.00 96 1030.0
20181114110049 28 136 0.0 0.0 0.00 0.00 0.00 96 1029.9
20181114104557 28 136 0.0 0.0 0.00 0.00 0.00 96 1030.1
20181114103102 28 136 0.0 0.0 0.00 0.00 0.00 96 1030.1
20181114101536 28 134 0.0 0.0 0.00 0.00 0.00 96 1030.3
20181114100050 28 134 0.0 1.0 0.00 0.00 0.00 96 1030.5
20181114094551 27 134 0.0 0.0 0.00 0.00 0.00 96 1030.7
20181114093037 27 134 0.0 0.0 0.00 0.00 0.00 96 1030.8
20181114090024 26 134 0.0 0.0 0.00 0.00 0.00 96 1030.7
20181114084525 26 134 0.0 0.0 0.00 0.00 0.00 96 1031.2
20181114083017 26 134 0.0 0.0 0.00 0.00 0.00 95 1031.2
20181114081512 26 134 0.0 0.0 0.00 0.00 0.00 95 1031.4
20181114080008 25 134 0.0 0.0 0.00 0.00 0.00 95 1031.5
20181114074509 26 134 0.0 0.0 0.00 0.00 0.00 95 1031.5
20181114073023 26 134 0.0 0.0 0.00 0.00 0.00 95 1031.5
20181114071506 26 134 0.0 0.0 0.00 0.00 0.00 95 1031.7
20181114070005 26 134 0.0 0.0 0.00 0.00 0.00 95 1031.7